Time,TemperatureF,DewpointF,PressureIn,WindDirection,WindDirectionDegrees,WindSpeedMPH,WindSpeedGustMPH,Humidity,HourlyPrecipIn,Conditions,Clouds,dailyrainin,SoftwareType,DateUTC
2013-05-07 00:03:00,47.0,-99.9,30.20,East,88,2.0,2.0,-999,-99.99,,,-99.99,,2013-05-07 04:03:00,
2013-05-07 00:12:00,47.0,-99.9,30.20,East,94,2.0,3.0,-999,-99.99,,,-99.99,,2013-05-07 04:12:00,
2013-05-07 00:23:00,47.0,-99.9,30.19,SE,137,2.0,3.0,-999,-99.99,,,-99.99,,2013-05-07 04:23:00,
2013-05-07 00:33:00,47.0,-99.9,30.19,SSE,167,-999.0,2.0,-999,-99.99,,,-99.99,,2013-05-07 04:33:00,
2013-05-07 00:42:00,47.0,-99.9,30.19,SE,128,2.0,4.0,-999,-99.99,,,-99.99,,2013-05-07 04:42:00,
2013-05-07 00:53:00,47.0,-99.9,30.19,ESE,122,2.0,4.0,-999,-99.99,,,-99.99,,2013-05-07 04:53:00,
2013-05-07 01:02:00,47.0,-99.9,30.19,ESE,113,3.0,5.0,-999,-99.99,,,-99.99,,2013-05-07 05:02:00,
2013-05-07 01:12:00,47.0,-99.9,30.19,SE,124,3.0,4.0,-999,-99.99,,,-99.99,,2013-05-07 05:12:00,
2013-05-07 01:22:00,47.0,-99.9,30.18,SE,125,2.0,4.0,-999,-99.99,,,-99.99,,2013-05-07 05:22:00,
2013-05-07 01:32:00,47.0,-99.9,30.18,East,85,2.0,3.0,-999,-99.99,,,-99.99,,2013-05-07 05:32:00,
2013-05-07 01:43:00,47.0,-99.9,30.17,ENE,60,2.0,2.0,-999,-99.99,,,-99.99,,2013-05-07 05:43:00,
2013-05-07 01:52:00,47.0,-99.9,30.17,ESE,119,2.0,3.0,-999,-99.99,,,-99.99,,2013-05-07 05:52:00,
2013-05-07 02:02:00,47.0,-99.9,30.17,ENE,64,0.0,2.0,-999,-99.99,,,-99.99,,2013-05-07 06:02:00,
2013-05-07 02:12:00,47.0,-99.9,30.17,NE,54,-999.0,1.0,-999,-99.99,,,-99.99,,2013-05-07 06:12:00,
2013-05-07 02:22:00,47.0,-99.9,30.17,ENE,75,-999.0,2.0,-999,-99.99,,,-99.99,,2013-05-07 06:22:00,
2013-05-07 02:32:00,48.0,-99.9,30.17,ENE,71,2.0,2.0,-999,-99.99,,,-99.99,,2013-05-07 06:32:00,
2013-05-07 02:42:00,48.0,-99.9,30.17,East,83,2.0,3.0,-999,-99.99,,,-99.99,,2013-05-07 06:42:00,
2013-05-07 02:52:00,48.0,-99.9,30.17,ENE,62,2.0,4.0,-999,-99.99,,,-99.99,,2013-05-07 06:52:00,
2013-05-07 03:02:00,48.0,-99.9,30.16,ENE,73,3.0,4.0,-999,-99.99,,,-99.99,,2013-05-07 07:02:00,
2013-05-07 03:11:00,48.0,-99.9,30.16,East,84,3.0,5.0,-999,-99.99,,,-99.99,,2013-05-07 07:11:00,
2013-05-07 03:22:00,48.0,-99.9,30.16,ENE,71,2.0,3.0,-999,-99.99,,,-99.99,,2013-05-07 07:22:00,
2013-05-07 03:32:00,49.0,-99.9,30.16,NNE,22,1.0,3.0,-999,-99.99,,,-99.99,,2013-05-07 07:32:00,
2013-05-07 03:42:00,49.0,-99.9,30.16,NNE,31,3.0,4.0,-999,-99.99,,,-99.99,,2013-05-07 07:42:00,
2013-05-07 03:53:00,49.0,-99.9,30.16,NNE,32,4.0,4.0,-999,-99.99,,,-99.99,,2013-05-07 07:53:00,
2013-05-07 04:02:00,48.0,-99.9,30.16,NNE,30,4.0,5.0,-999,-99.99,,,-99.99,,2013-05-07 08:02:00,
2013-05-07 04:11:00,48.0,-99.9,30.16,NNE,16,2.0,5.0,-999,-99.99,,,-99.99,,2013-05-07 08:11:00,
2013-05-07 04:22:00,48.0,-99.9,30.16,NNE,18,3.0,5.0,-999,-99.99,,,-99.99,,2013-05-07 08:22:00,
2013-05-07 04:32:00,48.0,-99.9,30.16,NNE,29,3.0,5.0,-999,-99.99,,,-99.99,,2013-05-07 08:32:00,
2013-05-07 04:42:00,47.0,-99.9,30.16,NNE,32,4.0,6.0,-999,-99.99,,,-99.99,,2013-05-07 08:42:00,
2013-05-07 04:52:00,48.0,-99.9,30.16,NE,36,4.0,6.0,-999,-99.99,,,-99.99,,2013-05-07 08:52:00,
2013-05-07 05:02:00,48.0,-99.9,30.16,NE,45,4.0,6.0,-999,-99.99,,,-99.99,,2013-05-07 09:02:00,
2013-05-07 05:12:00,48.0,-99.9,30.16,ENE,60,5.0,6.0,-999,-99.99,,,-99.99,,2013-05-07 09:12:00,
2013-05-07 05:23:00,48.0,-99.9,30.16,NE,53,6.0,7.0,-999,-99.99,,,-99.99,,2013-05-07 09:23:00,
2013-05-07 05:33:00,48.0,-99.9,30.16,NE,51,5.0,7.0,-999,-99.99,,,-99.99,,2013-05-07 09:33:00,
2013-05-07 05:43:00,48.0,-99.9,30.16,ENE,60,6.0,8.0,-999,-99.99,,,-99.99,,2013-05-07 09:43:00,
2013-05-07 05:53:00,48.0,-99.9,30.16,ENE,58,5.0,7.0,-999,-99.99,,,-99.99,,2013-05-07 09:53:00,
2013-05-07 06:03:00,49.0,-99.9,30.16,ENE,63,6.0,7.0,-999,-99.99,,,-99.99,,2013-05-07 10:03:00,
2013-05-07 06:13:00,49.0,-99.9,30.16,ENE,59,5.0,7.0,-999,-99.99,,,-99.99,,2013-05-07 10:13:00,
2013-05-07 06:23:00,49.0,-99.9,30.17,ENE,63,5.0,7.0,-999,-99.99,,,-99.99,,2013-05-07 10:23:00,
2013-05-07 06:33:00,49.0,-99.9,30.17,ENE,65,4.0,6.0,-999,-99.99,,,-99.99,,2013-05-07 10:33:00,
2013-05-07 06:42:00,49.0,-99.9,30.17,ENE,76,5.0,6.0,-999,-99.99,,,-99.99,,2013-05-07 10:42:00,
2013-05-07 06:52:00,49.0,-99.9,30.17,NE,49,4.0,6.0,-999,-99.99,,,-99.99,,2013-05-07 10:52:00,
2013-05-07 07:03:00,49.0,-99.9,30.17,ENE,68,5.0,6.0,-999,-99.99,,,-99.99,,2013-05-07 11:03:00,
2013-05-07 07:12:00,49.0,-99.9,30.18,ENE,71,5.0,7.0,-999,-99.99,,,-99.99,,2013-05-07 11:12:00,
2013-05-07 07:22:00,49.0,-99.9,30.18,ENE,69,5.0,6.0,-999,-99.99,,,-99.99,,2013-05-07 11:22:00,
2013-05-07 07:32:00,49.0,-99.9,30.18,ENE,64,5.0,6.0,-999,-99.99,,,-99.99,,2013-05-07 11:32:00,
2013-05-07 07:42:00,50.0,-99.9,30.18,ENE,69,4.0,6.0,-999,-99.99,,,-99.99,,2013-05-07 11:42:00,
2013-05-07 07:52:00,50.0,-99.9,30.18,ENE,64,4.0,5.0,-999,-99.99,,,-99.99,,2013-05-07 11:52:00,
2013-05-07 08:02:00,51.0,-99.9,30.18,ENE,78,4.0,5.0,-999,-99.99,,,-99.99,,2013-05-07 12:02:00,
2013-05-07 08:12:00,51.0,-99.9,30.18,East,79,4.0,6.0,-999,-99.99,,,-99.99,,2013-05-07 12:12:00,
2013-05-07 08:22:00,51.0,-99.9,30.18,ENE,75,5.0,6.0,-999,-99.99,,,-99.99,,2013-05-07 12:22:00,
2013-05-07 08:32:00,51.0,-99.9,30.18,ENE,66,4.0,5.0,-999,-99.99,,,-99.99,,2013-05-07 12:32:00,
2013-05-07 08:42:00,52.0,-99.9,30.18,ENE,72,4.0,4.0,-999,-99.99,,,-99.99,,2013-05-07 12:42:00,
2013-05-07 08:52:00,52.0,-99.9,30.18,NE,44,3.0,5.0,-999,-99.99,,,-99.99,,2013-05-07 12:52:00,
2013-05-07 09:02:00,52.0,-99.9,30.19,NE,50,4.0,4.0,-999,-99.99,,,-99.99,,2013-05-07 13:02:00,
2013-05-07 09:11:00,52.0,-99.9,30.19,NE,37,4.0,6.0,-999,-99.99,,,-99.99,,2013-05-07 13:11:00,
2013-05-07 09:22:00,52.0,-99.9,30.19,NE,37,4.0,6.0,-999,-99.99,,,-99.99,,2013-05-07 13:22:00,
2013-05-07 09:32:00,53.0,-99.9,30.19,NE,34,3.0,7.0,-999,-99.99,,,-99.99,,2013-05-07 13:32:00,
2013-05-07 09:42:00,53.0,-99.9,30.19,NE,41,4.0,7.0,-999,-99.99,,,-99.99,,2013-05-07 13:42:00,
2013-05-07 09:52:00,54.0,-99.9,30.19,NE,37,4.0,7.0,-999,-99.99,,,-99.99,,2013-05-07 13:52:00,
2013-05-07 10:02:00,55.0,-99.9,30.19,NE,35,3.0,4.0,-999,-99.99,,,-99.99,,2013-05-07 14:02:00,
2013-05-07 10:11:00,56.0,-99.9,30.19,NE,49,5.0,6.0,-999,-99.99,,,-99.99,,2013-05-07 14:11:00,
2013-05-07 10:22:00,56.0,-99.9,30.19,NE,48,5.0,7.0,-999,-99.99,,,-99.99,,2013-05-07 14:22:00,
2013-05-07 10:32:00,58.0,-99.9,30.19,NNE,21,3.0,6.0,-999,-99.99,,,-99.99,,2013-05-07 14:32:00,
2013-05-07 10:42:00,58.0,-99.9,30.19,North,6,5.0,6.0,-999,-99.99,,,-99.99,,2013-05-07 14:42:00,
2013-05-07 10:52:00,58.0,-99.9,30.19,NNE,13,4.0,6.0,-999,-99.99,,,-99.99,,2013-05-07 14:52:00,
2013-05-07 11:01:00,59.0,-99.9,30.19,ENE,61,3.0,5.0,-999,-99.99,,,-99.99,,2013-05-07 15:01:00,
2013-05-07 11:12:00,59.0,-99.9,30.20,NE,52,2.0,5.0,-999,-99.99,,,-99.99,,2013-05-07 15:12:00,
2013-05-07 11:22:00,59.0,-99.9,30.20,NE,54,3.0,4.0,-999,-99.99,,,-99.99,,2013-05-07 15:22:00,
2013-05-07 11:33:00,61.0,-99.9,30.20,East,84,3.0,5.0,-999,-99.99,,,-99.99,,2013-05-07 15:33:00,
2013-05-07 11:43:00,61.0,-99.9,30.20,ESE,110,3.0,7.0,-999,-99.99,,,-99.99,,2013-05-07 15:43:00,
2013-05-07 11:53:00,63.0,-99.9,30.20,SSE,163,6.0,10.0,-999,-99.99,,,-99.99,,2013-05-07 15:53:00,
2013-05-07 12:03:00,64.0,-99.9,30.19,South,182,5.0,11.0,-999,-99.99,,,-99.99,,2013-05-07 16:03:00,
2013-05-07 12:12:00,64.0,-99.9,30.19,SSE,164,7.0,10.0,-999,-99.99,,,-99.99,,2013-05-07 16:12:00,
2013-05-07 12:22:00,65.0,-99.9,30.19,SSE,163,7.0,11.0,-999,-99.99,,,-99.99,,2013-05-07 16:22:00,
2013-05-07 12:32:00,65.0,-99.9,30.19,SSE,163,5.0,11.0,-999,-99.99,,,-99.99,,2013-05-07 16:32:00,
2013-05-07 12:42:00,65.0,-99.9,30.19,SSW,209,7.0,9.0,-999,-99.99,,,-99.99,,2013-05-07 16:42:00,
2013-05-07 12:52:00,65.0,-99.9,30.19,SSE,152,4.0,9.0,-999,-99.99,,,-99.99,,2013-05-07 16:52:00,
2013-05-07 13:01:00,65.0,-99.9,30.19,SSE,155,4.0,8.0,-999,-99.99,,,-99.99,,2013-05-07 17:01:00,
2013-05-07 13:12:00,65.0,-99.9,30.18,South,185,5.0,8.0,-999,-99.99,,,-99.99,,2013-05-07 17:12:00,
2013-05-07 13:21:00,65.0,-99.9,30.18,North,359,3.0,8.0,-999,-99.99,,,-99.99,,2013-05-07 17:21:00,
2013-05-07 13:32:00,62.0,-99.9,30.18,North,358,4.0,7.0,-999,-99.99,,,-99.99,,2013-05-07 17:32:00,
2013-05-07 13:41:00,62.0,-99.9,30.18,North,6,4.0,7.0,-999,-99.99,,,-99.99,,2013-05-07 17:41:00,
2013-05-07 13:53:00,65.0,-99.9,30.18,NNE,18,3.0,5.0,-999,-99.99,,,-99.99,,2013-05-07 17:53:00,
2013-05-07 14:01:00,65.0,-99.9,30.18,NE,40,4.0,6.0,-999,-99.99,,,-99.99,,2013-05-07 18:01:00,
2013-05-07 14:11:00,65.0,-99.9,30.18,ESE,111,2.0,4.0,-999,-99.99,,,-99.99,,2013-05-07 18:11:00,
2013-05-07 14:21:00,65.0,-99.9,30.18,SW,216,5.0,9.0,-999,-99.99,,,-99.99,,2013-05-07 18:21:00,
2013-05-07 14:32:00,66.0,-99.9,30.17,South,185,5.0,9.0,-999,-99.99,,,-99.99,,2013-05-07 18:32:00,
2013-05-07 14:42:00,67.0,-99.9,30.17,SSE,164,5.0,9.0,-999,-99.99,,,-99.99,,2013-05-07 18:42:00,
2013-05-07 14:52:00,66.0,-99.9,30.17,SSE,167,5.0,10.0,-999,-99.99,,,-99.99,,2013-05-07 18:52:00,
2013-05-07 15:02:00,67.0,-99.9,30.17,South,172,7.0,13.0,-999,-99.99,,,-99.99,,2013-05-07 19:02:00,
2013-05-07 15:11:00,66.0,-99.9,30.17,South,183,7.0,11.0,-999,-99.99,,,-99.99,,2013-05-07 19:11:00,
2013-05-07 15:22:00,66.0,-99.9,30.17,SSW,204,6.0,11.0,-999,-99.99,,,-99.99,,2013-05-07 19:22:00,
2013-05-07 15:32:00,66.0,-99.9,30.17,South,177,9.0,13.0,-999,-99.99,,,-99.99,,2013-05-07 19:32:00,
2013-05-07 15:42:00,66.0,-99.9,30.17,SSE,166,8.0,13.0,-999,-99.99,,,-99.99,,2013-05-07 19:42:00,
2013-05-07 15:52:00,68.0,-99.9,30.17,SSE,166,6.0,11.0,-999,-99.99,,,-99.99,,2013-05-07 19:52:00,
2013-05-07 16:02:00,66.0,-99.9,30.16,SSW,193,8.0,12.0,-999,-99.99,,,-99.99,,2013-05-07 20:02:00,
2013-05-07 16:12:00,67.0,-99.9,30.16,South,171,7.0,10.0,-999,-99.99,,,-99.99,,2013-05-07 20:12:00,
2013-05-07 16:22:00,66.0,-99.9,30.16,SSW,202,9.0,13.0,-999,-99.99,,,-99.99,,2013-05-07 20:22:00,
2013-05-07 16:32:00,67.0,-99.9,30.16,South,185,6.0,10.0,-999,-99.99,,,-99.99,,2013-05-07 20:32:00,
2013-05-07 16:42:00,67.0,-99.9,30.16,South,186,6.0,10.0,-999,-99.99,,,-99.99,,2013-05-07 20:42:00,
2013-05-07 16:52:00,67.0,-99.9,30.16,South,184,7.0,11.0,-999,-99.99,,,-99.99,,2013-05-07 20:52:00,
2013-05-07 17:02:00,67.0,-99.9,30.16,South,180,7.0,11.0,-999,-99.99,,,-99.99,,2013-05-07 21:02:00,
2013-05-07 17:11:00,67.0,-99.9,30.16,South,187,8.0,12.0,-999,-99.99,,,-99.99,,2013-05-07 21:11:00,
2013-05-07 17:22:00,67.0,-99.9,30.16,SSW,193,6.0,11.0,-999,-99.99,,,-99.99,,2013-05-07 21:22:00,
2013-05-07 17:33:00,66.0,-99.9,30.16,South,181,9.0,12.0,-999,-99.99,,,-99.99,,2013-05-07 21:33:00,
2013-05-07 17:43:00,66.0,-99.9,30.16,SSW,195,5.0,13.0,-999,-99.99,,,-99.99,,2013-05-07 21:43:00,
2013-05-07 17:53:00,66.0,-99.9,30.16,SSW,194,6.0,11.0,-999,-99.99,,,-99.99,,2013-05-07 21:53:00,
2013-05-07 18:02:00,65.0,-99.9,30.16,South,188,7.0,13.0,-999,-99.99,,,-99.99,,2013-05-07 22:02:00,
2013-05-07 18:13:00,65.0,-99.9,30.16,SSE,161,4.0,10.0,-999,-99.99,,,-99.99,,2013-05-07 22:13:00,
2013-05-07 18:23:00,65.0,-99.9,30.16,South,181,8.0,11.0,-999,-99.99,,,-99.99,,2013-05-07 22:23:00,
2013-05-07 18:33:00,64.0,-99.9,30.16,South,181,6.0,10.0,-999,-99.99,,,-99.99,,2013-05-07 22:33:00,
2013-05-07 18:42:00,64.0,-99.9,30.16,South,179,4.0,9.0,-999,-99.99,,,-99.99,,2013-05-07 22:42:00,
2013-05-07 18:52:00,63.0,-99.9,30.16,South,184,5.0,11.0,-999,-99.99,,,-99.99,,2013-05-07 22:52:00,
2013-05-07 19:02:00,62.0,-99.9,30.16,South,180,6.0,10.0,-999,-99.99,,,-99.99,,2013-05-07 23:02:00,
2013-05-07 19:12:00,62.0,-99.9,30.16,South,178,5.0,10.0,-999,-99.99,,,-99.99,,2013-05-07 23:12:00,
2013-05-07 19:22:00,62.0,-99.9,30.17,South,173,6.0,9.0,-999,-99.99,,,-99.99,,2013-05-07 23:22:00,
2013-05-07 19:32:00,61.0,-99.9,30.17,South,169,4.0,8.0,-999,-99.99,,,-99.99,,2013-05-07 23:32:00,
2013-05-07 19:42:00,61.0,-99.9,30.17,South,186,5.0,7.0,-999,-99.99,,,-99.99,,2013-05-07 23:42:00,
2013-05-07 19:52:00,61.0,-99.9,30.17,South,171,4.0,10.0,-999,-99.99,,,-99.99,,2013-05-07 23:52:00,
2013-05-07 20:02:00,60.0,-99.9,30.17,South,169,6.0,10.0,-999,-99.99,,,-99.99,,2013-05-08 00:02:00,
2013-05-07 20:12:00,59.0,-99.9,30.18,South,181,4.0,10.0,-999,-99.99,,,-99.99,,2013-05-08 00:12:00,
2013-05-07 20:22:00,59.0,-99.9,30.18,South,177,4.0,10.0,-999,-99.99,,,-99.99,,2013-05-08 00:22:00,
2013-05-07 20:32:00,59.0,-99.9,30.18,SSE,163,6.0,10.0,-999,-99.99,,,-99.99,,2013-05-08 00:32:00,
2013-05-07 20:42:00,59.0,-99.9,30.18,South,171,6.0,8.0,-999,-99.99,,,-99.99,,2013-05-08 00:42:00,
2013-05-07 20:52:00,58.0,-99.9,30.18,SSE,164,4.0,9.0,-999,-99.99,,,-99.99,,2013-05-08 00:52:00,
2013-05-07 21:02:00,59.0,-99.9,30.19,South,174,6.0,9.0,-999,-99.99,,,-99.99,,2013-05-08 01:02:00,
2013-05-07 21:12:00,58.0,-99.9,30.19,South,179,4.0,7.0,-999,-99.99,,,-99.99,,2013-05-08 01:12:00,
2013-05-07 21:22:00,58.0,-99.9,30.19,South,177,4.0,9.0,-999,-99.99,,,-99.99,,2013-05-08 01:22:00,
2013-05-07 21:32:00,58.0,-99.9,30.19,South,169,5.0,10.0,-999,-99.99,,,-99.99,,2013-05-08 01:32:00,
2013-05-07 21:42:00,58.0,-99.9,30.19,South,179,4.0,7.0,-999,-99.99,,,-99.99,,2013-05-08 01:42:00,
2013-05-07 21:52:00,58.0,-99.9,30.19,South,170,5.0,7.0,-999,-99.99,,,-99.99,,2013-05-08 01:52:00,
2013-05-07 22:02:00,58.0,-99.9,30.20,South,182,4.0,7.0,-999,-99.99,,,-99.99,,2013-05-08 02:02:00,
2013-05-07 22:12:00,58.0,-99.9,30.20,South,171,4.0,6.0,-999,-99.99,,,-99.99,,2013-05-08 02:12:00,
2013-05-07 22:22:00,58.0,-99.9,30.20,South,171,4.0,7.0,-999,-99.99,,,-99.99,,2013-05-08 02:22:00,
2013-05-07 22:32:00,58.0,-99.9,30.20,South,173,5.0,9.0,-999,-99.99,,,-99.99,,2013-05-08 02:32:00,
2013-05-07 22:42:00,58.0,-99.9,30.20,SSE,161,3.0,6.0,-999,-99.99,,,-99.99,,2013-05-08 02:42:00,
2013-05-07 22:52:00,58.0,-99.9,30.20,South,169,4.0,6.0,-999,-99.99,,,-99.99,,2013-05-08 02:52:00,
2013-05-07 23:02:00,58.0,-99.9,30.20,South,174,4.0,7.0,-999,-99.99,,,-99.99,,2013-05-08 03:02:00,
2013-05-07 23:11:00,59.0,-99.9,30.20,SSE,162,3.0,7.0,-999,-99.99,,,-99.99,,2013-05-08 03:11:00,
2013-05-07 23:22:00,58.0,-99.9,30.20,SSE,165,4.0,7.0,-999,-99.99,,,-99.99,,2013-05-08 03:22:00,
2013-05-07 23:33:00,58.0,-99.9,30.19,SSE,149,3.0,6.0,-999,-99.99,,,-99.99,,2013-05-08 03:33:00,
2013-05-07 23:43:00,57.0,-99.9,30.20,SSE,153,3.0,6.0,-999,-99.99,,,-99.99,,2013-05-08 03:43:00,
2013-05-07 23:53:00,57.0,-99.9,30.20,SSE,161,4.0,6.0,-999,-99.99,,,-99.99,,2013-05-08 03:53:00,